Location: Banios
(43.0451°N, 0.2335°E)
Time: 12:51:37
(UTC+00:00)

Cosmos 1125 Rocket - Pass Details

Date: 25 January 2021
Orbit: 756 x 781 km, 74.0° (Epoch: 25 February)

Event Time Altitude Azimuth Distance (km) Brightness Sun altitude
Exits shadow 06:13:27 - 337° (NNW) 3,115 6.3 -12.4°
Reaches altitude 10° 06:15:27 10° 335° (NNW) 2,338 5.6 -12.1°
Maximum altitude 06:20:44 70° 253° (WSW) 829 3.5 -11.1°
Drops below altitude 10° 06:26:00 10° 170° (S) 2,327 6.4 -10.2°
Sets 06:28:22 0° 168° (SSE) 3,250 7.2 -9.8°
